RH
68 62 75 91 100 91 75 74 69 73 68 49 44 52 60 65 62 76 61 65 58 56 65 63 82 78 77 78 79 79 78 78 78 77 76 75 74 76 75 73 71 71 72 68 68 69 66 69 70
65 66 83 94 98 76 68 68 83 67 55 44 54 54 59 77 71 80 75 62 54 52 55 57 83 80 77 78 79 78 76 76 77 76 76 75 74 73 73 73 71 70 71 70 68 68 68 68 69
63 64 97 91 82 76 89 67 60 51 51 48 63 61 68 81 73 67 60 56 52 56 57 60 82 80 77 77 76 77 76 77 76 77 76 74 73 73 72 73 71 70 69 68 68 69 69 68 68
69 92 91 88 75 76 86 60 52 55 49 51 61 76 68 65 64 59 60 55 51 56 52 69 79 75 78 78 74 77 77 76 76 77 75 74 73 73 74 71 69 68 69 68 68 68 67 67 69
70 81 76 80 77 71 58 56 61 57 63 58 61 84 89 74 64 61 63 54 53 51 54 56 81 76 76 78 74 76 77 75 76 75 74 73 72 70 69 70 70 68 69 68 69 66 66 68 68
96 71 73 81 66 56 52 60 54 56 63 66 67 72 87 71 70 65 58 54 52 54 50 55 77 77 77 78 74 77 78 77 75 74 73 74 74 72 70 70 70 70 68 68 68 66 67 67 68
78 72 68 61 62 60 58 61 55 58 65 65 58 73 90 75 65 61 58 58 53 52 54 55 64 68 74 77 74 76 77 76 74 73 75 75 74 73 72 70 70 67 65 65 66 67 68 68 70
70 60 66 60 63 60 55 63 51 54 62 50 52 73 91 74 63 60 61 61 56 54 54 59 61 54 59 58 73 74 75 75 75 75 75 74 72 71 71 73 73 67 64 63 64 67 69 71 73
56 69 66 53 56 58 55 59 55 48 58 53 53 54 54 66 64 63 70 66 58 59 57 55 57 63 68 64 63 72 74 74 74 71 76 74 63 59 56 70 70 68 67 66 65 67 68 69 69
73 76 59 42 45 56 58 54 54 57 58 65 64 57 61 65 67 65 66 64 58 63 59 56 61 62 63 55 65 67 61 56 60 64 70 64 67 64 56 63 75 71 70 68 68 66 69 59 45
60 72 56 44 42 50 50 55 49 56 63 62 70 75 70 65 64 59 56 53 52 58 58 61 66 69 65 64 64 62 61 62 65 74 69 69 66 64 54 58 54 55 65 48 51 53 45 52 46
70 60 58 48 41 44 46 43 52 51 49 50 58 63 63 62 62 56 54 55 56 62 64 61 66 72 69 64 62 62 62 62 60 64 70 72 63 66 64 56 59 61 57 61 61 55 60 58 56
63 58 50 46 43 41 41 45 53 53 51 52 57 60 60 57 58 52 53 59 60 65 68 63 69 75 75 76 66 64 66 60 58 64 60 64 64 69 61 64 60 64 59 57 61 57 54 56 59
45 49 47 43 41 39 41 40 48 59 53 59 62 61 57 55 57 53 56 61 67 69 66 63 70 73 74 72 78 70 66 62 61 61 57 68 65 70 59 63 62 62 59 57 56 58 54 52 50
34 44 35 35 40 44 34 43 46 56 56 63 62 61 57 56 53 54 55 60 66 67 65 66 68 68 75 75 73 67 61 56 59 60 70 66 67 73 72 65 63 62 66 69 66 63 60 48 48
22 29 44 35 33 32 35 45 50 55 57 63 62 60 59 57 54 54 54 56 60 62 69 68 57 62 68 69 69 61 57 57 58 59 61 66 70 74 75 65 63 65 63 61 81 78 52 49 47
27 18 34 41 29 37 37 44 54 54 54 60 62 60 58 58 56 57 55 57 56 62 69 70 66 63 66 72 65 63 63 60 58 58 59 69 69 68 68 64 65 71 62 60 60 57 56 51 48
20 22 30 38 33 32 38 41 60 56 54 58 61 59 59 57 55 54 55 56 57 60 65 68 64 69 72 68 72 61 57 58 59 59 59 68 66 69 69 68 69 66 72 76 64 70 62 59 66
23 26 20 30 30 32 35 35 59 59 55 60 60 59 57 55 49 50 53 54 56 62 66 69 71 74 70 67 63 61 58 59 59 61 68 70 68 70 75 64 69 74 70 76 70 62 66 58 63
21 27 27 22 26 34 36 36 44 60 58 55 57 56 55 50 49 53 54 52 54 61 66 71 72 75 74 64 67 61 63 59 58 61 68 67 68 71 71 74 69 73 63 76 70 66 51 53 54
20 22 25 25 24 25 35 35 41 54 55 55 50 49 47 48 48 53 56 53 53 60 67 70 75 75 74 72 67 71 68 66 62 63 63 66 68 69 74 74 70 73 86 80 73 64 61 50 57
18 16 22 24 25 33 29 41 40 42 63 60 55 53 46 46 45 46 52 54 52 57 60 67 72 75 72 77 71 78 60 60 56 59 59 64 70 68 70 74 73 76 78 86 68 63 61 59 53
16 13 14 19 27 26 26 39 32 38 57 57 53 51 50 48 45 45 46 50 48 51 56 60 72 78 75 79 75 68 69 57 58 56 69 72 74 70 67 73 74 75 75 84 73 73 73 57 50
14 18 17 14 17 34 30 28 31 35 45 48 49 48 49 48 49 50 48 48 49 48 53 58 73 79 77 76 76 79 76 70 63 63 59 57 57 62 72 69 74 75 72 75 71 74 74 69 61
18 18 25 30 22 28 24 30 29 24 28 32 44 48 47 48 48 50 53 52 53 54 56 59 71 77 75 74 74 76 75 78 77 72 59 61 55 57 69 76 77 69 76 72 74 78 75 73 62
22 20 21 35 22 15 21 33 27 20 18 26 29 34 41 46 45 47 50 52 55 55 58 60 68 75 74 72 76 77 76 59 59 65 54 54 50 53 63 70 70 72 72 71 75 67 64 70 66
24 25 16 20 27 22 13 22 21 20 20 18 20 33 40 44 45 46 47 49 52 54 58 63 67 71 71 66 73 77 76 74 64 70 69 56 65 52 62 64 68 69 70 73 75 65 72 72 72
23 19 27 25 31 31 19 20 21 26 24 21 21 29 35 40 43 43 45 46 47 48 51 56 61 68 67 66 66 67 71 74 70 70 73 68 63 66 60 66 66 67 70 72 77 67 71 76 65
28 27 24 22 24 26 23 20 17 21 24 24 23 24 26 34 40 41 42 43 46 44 48 51 56 64 64 65 66 67 66 66 69 68 70 71 67 70 69 70 68 68 69 71 76 76 70 76 75
40 33 23 31 37 29 25 19 16 18 18 18 17 22 24 30 36 38 39 41 43 45 46 48 51 52 57 62 68 68 67 68 66 70 68 71 73 69 69 69 70 68 67 68 74 72 64 72 74
Wind_Speed
11 9 3 2 3 3 0 1 1 7 5 4 12 4 5 6 2 4 12 11 19 16 14 15 14 16 16 14 14 14 14 14 13 12 12 11 11 10 9 10 11 10 9 10 10 10 10 10 10
9 9 2 2 1 2 3 4 7 8 3 15 10 9 4 4 4 11 13 17 20 16 14 15 14 15 16 14 13 13 14 13 14 13 12 11 10 10 10 9 11 8 8 9 10 10 10 10 10
12 6 2 1 1 1 1 3 5 12 11 13 5 6 3 4 7 19 15 22 19 15 14 15 14 15 15 13 15 13 13 12 13 12 12 11 10 11 11 9 8 9 9 9 10 10 10 10 10
7 3 2 3 4 2 2 4 9 15 11 6 9 7 5 4 16 10 21 21 18 15 15 15 15 16 14 14 14 12 12 11 11 13 12 12 11 10 11 9 10 9 10 9 9 9 10 9 9
2 2 2 2 2 2 4 2 4 11 8 9 3 5 5 6 8 21 21 19 19 16 14 15 13 14 13 12 13 12 12 13 12 11 11 12 12 11 10 11 11 10 9 9 9 9 8 8 8
3 2 2 2 3 1 2 3 7 12 9 10 8 9 4 11 18 20 19 18 17 16 15 14 14 15 14 13 13 12 12 12 11 12 11 11 12 11 11 10 11 11 9 9 8 9 8 8 9
2 3 1 3 2 3 3 4 11 11 12 7 15 7 6 14 19 19 19 17 17 14 13 12 13 13 13 11 12 11 12 11 11 11 10 11 11 10 10 9 10 10 10 9 10 9 9 8 9
2 2 2 4 3 3 5 5 9 8 5 14 12 7 9 18 21 19 18 17 16 14 13 12 11 11 10 11 12 11 11 10 11 11 10 9 10 10 8 6 9 9 10 10 10 9 8 7 9
2 3 4 3 3 1 8 6 6 10 15 5 8 8 18 24 21 20 18 17 15 12 13 12 11 11 9 8 10 10 10 9 10 9 9 6 5 6 6 8 7 9 9 8 9 8 8 9 8
4 3 4 2 1 3 10 8 10 7 14 5 8 12 25 26 23 23 21 19 18 16 15 12 11 11 10 8 8 7 8 6 6 6 5 4 4 4 5 6 7 7 8 8 7 5 7 4 5
6 5 2 2 1 8 8 8 5 13 9 10 19 23 26 25 23 22 21 20 18 17 13 13 11 11 10 8 6 5 4 5 5 5 4 4 3 3 3 3 3 3 5 3 4 4 2 3 4
6 9 10 4 4 6 4 7 7 11 2 13 22 28 28 28 24 23 21 19 18 16 15 14 12 11 10 7 6 6 5 5 4 4 4 3 3 3 3 2 4 3 2 3 3 2 2 1 3
15 6 5 9 5 4 4 5 4 9 5 16 22 27 26 24 23 21 19 17 16 16 16 15 13 11 9 8 6 6 5 5 4 3 3 3 2 2 3 3 3 3 2 3 3 3 4 3 2
5 16 11 4 5 5 6 2 6 4 14 19 24 27 26 25 24 21 21 19 17 16 16 16 14 12 10 8 7 6 5 5 4 3 3 3 3 3 3 4 3 3 2 2 2 3 3 4 3
10 4 6 10 7 6 6 7 10 13 16 21 23 24 25 23 24 23 20 20 19 16 16 16 15 13 11 10 7 6 5 5 4 4 4 3 3 3 2 2 3 3 3 2 2 3 3 4 4
6 9 5 3 12 6 9 3 7 16 19 21 23 23 23 24 24 21 19 19 18 16 17 16 13 14 13 10 7 6 6 5 4 4 4 5 4 3 3 3 3 3 3 3 3 2 3 4 4
5 10 15 5 8 6 13 2 11 15 17 20 21 23 23 22 23 21 20 19 18 17 17 16 15 14 13 10 7 7 6 5 4 4 4 5 5 4 3 2 3 4 3 3 2 3 2 4 4
11 14 10 15 10 12 11 8 11 15 16 18 19 21 22 23 25 21 21 19 17 17 16 15 14 13 12 8 7 5 5 5 5 5 5 7 5 5 4 2 3 3 3 3 2 3 3 4 2
9 6 15 11 9 10 14 11 12 15 15 17 19 20 22 24 23 20 19 19 18 17 16 17 16 14 10 9 9 7 7 6 5 5 6 7 6 6 4 3 3 3 3 4 5 4 4 5 4
17 6 12 14 3 10 7 15 13 18 21 22 24 23 24 23 23 22 22 21 21 19 18 17 16 15 12 10 8 5 6 4 3 3 5 6 7 7 5 4 4 5 3 3 5 5 4 3 4
18 19 7 7 5 10 6 15 13 15 14 14 17 19 19 23 25 25 24 23 21 21 20 18 16 15 14 12 8 4 5 2 4 4 4 6 8 7 7 6 4 6 4 4 4 4 4 4 3
20 16 17 10 6 12 13 12 13 15 19 20 20 21 22 25 24 24 25 25 24 21 19 18 17 16 14 14 11 12 10 9 8 6 4 6 9 8 8 7 6 5 4 4 4 4 2 3 4
14 11 16 19 14 10 11 10 16 12 17 21 23 23 24 25 26 27 28 26 24 21 20 18 17 15 14 15 13 12 11 9 7 7 7 6 7 9 9 8 7 6 5 3 4 4 4 3 3
10 4 12 15 14 17 20 13 15 13 19 20 21 23 24 24 25 25 24 23 22 21 20 19 18 16 16 16 16 15 14 11 9 8 9 8 7 7 10 9 8 6 5 5 4 4 4 3 3
20 14 7 8 12 18 18 18 16 14 15 17 21 24 25 24 25 25 25 24 23 23 22 18 19 19 17 18 17 17 16 15 14 12 10 10 9 8 9 10 9 7 7 6 5 5 6 5 5
20 20 9 14 14 16 17 14 14 25 19 10 15 19 19 22 22 24 25 24 23 24 23 22 21 19 18 19 18 16 16 12 13 12 11 10 10 9 9 11 10 10 9 7 6 5 6 6 6
15 25 20 9 4 11 14 21 13 14 19 21 18 14 18 21 23 26 26 25 23 23 24 23 21 20 20 21 16 16 15 15 13 14 13 10 9 9 11 11 11 11 10 9 8 7 7 7 6
17 15 18 14 17 13 9 21 15 21 16 17 19 17 17 19 22 22 24 26 23 24 22 22 22 22 21 20 18 16 16 16 15 13 13 12 11 11 11 12 11 10 10 10 10 8 8 8 7
13 12 15 16 16 14 12 10 16 19 20 17 18 20 19 19 22 23 23 24 24 23 22 23 22 21 20 19 18 18 16 17 15 14 14 13 12 12 12 12 11 11 11 10 10 11 10 10 10
7 10 23 12 20 18 13 13 4 16 20 22 20 17 19 20 21 23 23 22 23 24 23 24 23 23 21 19 19 18 17 16 17 16 16 14 14 13 13 13 12 11 11 10 11 12 11 12 12
Wind_Direction
156 150 131 186 221 234 343 224 105 152 165 153 148 149 142 37 39 76 146 143 141 142 144 136 127 124 121 121 120 121 118 122 122 126 127 128 133 137 131 128 122 129 113 103 98 103 99 97 105
151 144 159 252 274 187 95 126 248 157 114 135 94 113 87 93 92 126 137 150 146 143 142 138 129 125 123 128 121 124 124 118 118 123 125 130 132 136 126 128 130 132 110 103 100 101 100 99 93
157 166 257 263 265 187 105 43 116 138 142 156 109 60 62 93 119 145 136 145 148 142 141 137 131 127 129 133 121 118 119 118 121 115 118 116 124 132 127 120 110 105 108 103 107 102 98 101 100
158 194 240 220 215 156 219 57 112 126 127 128 119 75 96 272 148 150 145 147 148 144 143 136 137 133 132 122 123 123 114 123 118 114 111 116 119 115 110 97 98 101 104 110 112 105 105 107 107
189 208 215 231 234 223 216 198 193 158 122 129 109 110 95 97 122 142 146 151 147 146 146 143 141 136 130 125 124 124 114 120 119 119 120 121 118 108 102 111 99 99 104 109 111 114 111 109 115
169 246 214 205 229 221 216 137 196 154 135 136 109 122 108 130 143 148 147 153 150 147 147 143 142 141 136 135 129 126 118 116 116 116 116 112 105 101 98 95 104 108 110 112 113 114 108 101 90
200 193 255 272 206 191 159 151 157 146 149 150 142 114 114 149 151 150 149 149 152 149 149 149 146 142 138 129 130 129 122 117 115 116 116 107 106 106 103 107 100 100 107 119 122 117 105 95 93
208 242 241 227 217 203 148 162 135 141 118 130 147 155 164 162 156 150 149 150 153 156 154 153 149 149 146 148 138 137 127 120 117 117 111 111 111 98 97 101 97 94 100 111 125 125 118 100 92
149 235 238 253 202 136 148 153 144 110 139 143 177 157 147 157 155 154 153 153 156 162 163 161 154 154 150 148 146 143 134 127 126 125 111 117 108 107 117 92 103 110 109 106 117 128 123 106 93
211 248 233 263 141 197 167 174 138 130 144 116 117 119 142 157 160 161 162 160 165 164 167 166 163 161 159 159 151 145 146 138 135 133 132 137 121 116 106 89 76 69 83 95 103 119 114 159 98
195 243 233 302 182 145 135 140 133 144 186 180 160 150 155 162 164 166 167 168 169 165 170 172 170 170 170 156 158 154 153 154 145 148 149 135 139 141 127 119 94 82 76 89 125 133 114 110 95
234 244 257 318 160 174 178 157 169 183 112 169 164 157 160 167 167 170 171 171 170 170 177 177 176 176 177 164 169 162 165 167 166 164 154 159 159 147 131 97 80 107 85 103 90 109 104 105 135
227 262 261 242 254 289 175 201 157 204 128 144 154 158 165 169 167 172 172 171 175 178 182 183 180 183 179 179 169 171 177 180 167 181 164 177 172 155 141 118 97 89 102 83 93 95 64 76 172
220 240 264 287 245 285 264 248 189 120 139 145 158 164 169 174 172 173 178 176 179 183 187 184 188 186 185 187 182 179 183 178 189 182 166 170 194 179 157 145 137 121 104 84 78 59 74 65 76
234 319 281 246 235 242 233 220 215 144 153 153 167 169 170 178 180 184 183 182 179 186 184 187 190 189 192 192 190 189 190 186 192 195 196 191 189 195 189 133 143 128 127 126 113 85 82 88 86
210 217 254 170 194 222 193 235 145 156 158 164 171 173 173 180 188 186 189 189 186 185 188 187 191 192 194 195 193 197 193 198 200 193 186 183 193 206 179 160 151 145 154 128 101 115 126 94 101
193 215 216 250 192 190 202 262 148 166 168 168 175 178 178 182 192 193 195 195 190 191 187 189 191 195 196 195 199 202 200 210 214 217 211 193 206 207 228 188 158 174 157 137 134 99 56 107 102
206 214 218 211 187 196 201 226 156 174 179 178 180 182 185 188 194 192 196 197 194 194 193 193 191 196 194 191 192 201 206 216 227 230 236 202 204 202 199 193 176 199 170 129 151 135 103 79 62
263 236 234 203 203 213 223 231 190 181 189 183 187 190 191 195 191 195 197 199 199 197 195 197 193 194 186 192 192 195 206 209 222 224 212 196 201 191 183 191 190 201 199 148 146 137 143 129 146
245 280 236 253 217 220 213 232 200 188 198 191 190 194 195 191 192 198 199 199 202 199 200 195 200 192 193 190 196 198 188 208 220 209 193 196 196 188 186 198 196 217 204 169 156 175 146 114 162
231 236 235 261 261 243 230 244 213 206 211 200 203 207 203 201 194 196 200 201 200 201 201 197 196 196 194 196 186 170 158 154 197 187 185 196 195 195 192 198 213 205 206 188 167 171 158 138 152
228 226 238 262 293 233 210 244 204 207 203 206 203 204 206 204 205 201 199 202 202 201 198 198 197 196 196 189 192 196 201 198 202 197 188 185 194 202 200 200 202 213 226 199 180 166 153 168 154
232 231 232 242 256 280 228 243 232 200 207 212 210 208 208 205 205 204 204 203 203 199 197 197 195 196 195 192 197 194 209 209 194 198 194 202 197 205 209 206 203 208 221 190 214 176 173 179 191
222 221 227 234 235 245 234 235 229 202 210 216 212 213 210 207 206 207 207 203 201 200 198 195 192 197 196 194 197 199 201 202 205 199 204 204 204 198 208 204 210 210 212 205 209 201 201 199 204
208 194 195 210 211 235 227 232 233 212 211 211 201 210 212 206 204 202 201 200 197 196 195 192 191 198 198 199 199 202 203 202 203 199 207 210 208 203 198 198 202 208 213 208 205 207 213 199 209
201 206 202 208 216 229 216 234 221 227 240 230 228 214 208 205 207 206 202 200 196 193 190 190 191 196 195 201 204 204 205 209 215 212 215 218 224 216 201 198 205 209 215 215 206 216 231 223 219
189 211 215 269 245 252 215 235 267 229 238 233 231 218 204 203 205 205 202 201 197 198 193 192 190 196 196 200 202 205 205 210 211 213 209 218 218 222 217 208 206 210 213 217 214 226 224 224 223
233 202 204 219 236 234 203 217 231 203 221 224 226 215 210 205 206 206 203 198 199 197 197 191 195 194 197 200 200 203 204 206 209 207 209 209 212 213 211 213 210 211 215 216 217 226 227 225 220
199 206 213 214 228 235 246 223 224 223 208 216 222 221 217 207 206 205 205 201 198 192 193 195 194 195 197 199 202 205 206 206 209 209 211 207 203 203 208 212 212 215 219 218 219 231 234 230 232
329 260 212 220 215 230 262 243 227 215 210 216 219 218 220 212 206 205 204 200 200 197 191 196 196 196 197 197 197 201 202 203 206 208 208 205 202 200 208 213 215 214 218 221 221 230 233 230 235